FW3899 Weather Reports


Display with metric or nautical units.
time (UTC)temp
F
wind
direction
speed
MPH
gust
MPH
rain 1hr
in
rain 24hr
in
rain mn
in
humidity
%
barometer
mb
20260902204510 65 242 3.0 5.0 0.00 0.00 0.00 72 1021.1
20260902203008 65 224 2.0 5.0 0.00 0.00 0.00 72 1020.9
20260902201508 66 234 3.0 6.0 0.00 0.00 0.00 70 1020.8
20260902200009 67 218 4.0 8.0 0.00 0.00 0.00 69 1020.8
20260902194519 67 257 6.0 8.0 0.00 0.00 0.00 68 1020.8
20260902193006 66 258 3.0 7.0 0.00 0.00 0.00 70 1020.8
20260902191506 67 223 3.0 5.0 0.00 0.00 0.00 69 1020.6
20260902190006 67 253 4.0 7.0 0.00 0.00 0.00 69 1020.6
20260902184504 68 258 4.0 8.0 0.00 0.00 0.00 67 1020.4
20260902183004 69 247 3.0 6.0 0.00 0.00 0.00 67 1020.2
20260902181503 70 245 3.0 6.0 0.00 0.00 0.00 65 1020.0
20260902180004 71 248 2.0 4.0 0.00 0.00 0.00 65 1019.9
20260902174501 73 293 1.0 6.0 0.00 0.00 0.00 61 1019.8
20260902173001 74 277 0.0 3.0 0.00 0.00 0.00 60 1019.6
20260902171603 74 277 0.0 3.0 0.00 0.00 0.00 60 1019.5
20260902170100 74 321 0.0 1.0 0.00 0.00 0.00 57 1019.6
20260902164604 74 318 1.0 5.0 0.00 0.00 0.00 55 1019.5
20260902164501 74 349 0.0 6.0 0.00 0.00 0.00 54 1019.5
20260902163100 75 316 3.0 7.0 0.00 0.00 0.00 53 1019.3
20260902161559 78 55 3.0 11.0 0.00 0.00 0.00 50 1019.4
20260902160108 78 273 4.0 8.0 0.00 0.00 0.00 49 1019.3
20260902154600 76 262 5.0 8.0 0.00 0.00 0.00 50 1019.3
20260902153054 76 288 3.0 8.0 0.00 0.00 0.00 50 1019.5
20260902151601 76 284 6.0 9.0 0.00 0.00 0.00 49 1019.3
20260902150051 77 312 4.0 8.0 0.00 0.00 0.00 50 1019.4
20260902144550 77 251 4.0 7.0 0.00 0.00 0.00 48 1019.5
20260902143050 80 274 9.0 13.0 0.00 0.00 0.00 46 1019.4
20260902141547 79 246 5.0 13.0 0.00 0.00 0.00 47 1019.3
20260902140047 79 290 3.0 13.0 0.00 0.00 0.00 50 1019.6
20260902134544 79 299 4.0 11.0 0.00 0.00 0.00 49 1019.5
20260902133044 78 218 8.0 16.0 0.00 0.00 0.00 47 1019.6
20260902131544 78 248 6.0 14.0 0.00 0.00 0.00 48 1019.6
20260902130140 78 271 4.0 15.0 0.00 0.00 0.00 48 1019.7
20260902124539 78 268 9.0 14.0 0.00 0.00 0.00 49 1019.7
20260902123037 78 282 6.0 11.0 0.00 0.00 0.00 47 1019.8
20260902121535 77 283 9.0 12.0 0.00 0.00 0.00 49 1019.8
20260902120037 77 279 2.0 17.0 0.00 0.00 0.00 53 1019.9
20260902114540 77 306 5.0 11.0 0.00 0.00 0.00 55 1020.3
20260902113030 76 248 6.0 11.0 0.00 0.00 0.00 57 1020.2
20260902111527 75 311 4.0 10.0 0.00 0.00 0.00 61 1020.4
20260902110031 74 282 3.0 10.0 0.00 0.00 0.00 59 1020.5
20260902104541 73 285 6.0 14.0 0.00 0.00 0.00 59 1020.8
20260902103018 72 222 8.0 13.0 0.00 0.00 0.00 62 1020.7
20260902101515 71 276 7.0 12.0 0.00 0.00 0.00 64 1020.8
20260902100013 71 248 8.0 12.0 0.00 0.00 0.00 64 1021.0
20260902094513 70 261 7.0 12.0 0.00 0.00 0.00 68 1021.0
20260902093007 69 259 7.0 13.0 0.00 0.00 0.00 69 1021.0
20260902091503 68 199 1.0 7.0 0.00 0.00 0.00 70 1020.6
20260902090001 68 288 3.0 8.0 0.00 0.00 0.00 70 1020.9
20260902084605 67 271 6.0 10.0 0.00 0.00 0.00 72 1020.7
20260902083109 67 250 7.0 10.0 0.00 0.00 0.00 70 1020.7
20260902081612 67 45 0.0 0.0 0.00 0.00 0.00 74 1020.5
20260902080058 66 78 0.0 0.0 0.00 0.00 0.00 74 1020.4
20260902074547 64 70 0.0 0.0 0.00 0.00 0.00 75 1020.5
20260902073043 63 79 0.0 0.0 0.00 0.00 0.00 78 1020.3
20260902071540 61 316 0.0 0.0 0.00 0.00 0.00 80 1020.5
20260902070038 61 313 0.0 0.0 0.00 0.00 0.00 82 1020.4
20260902064535 60 75 0.0 0.0 0.00 0.00 0.00 82 1020.3
20260902063035 60 205 0.0 0.0 0.00 0.00 0.00 82 1020.4
20260902061528 59 204 0.0 0.0 0.00 0.00 0.00 83 1020.5
20260902060032 57 207 0.0 0.0 0.00 0.00 0.00 86 1020.5
20260902054524 55 207 0.0 0.0 0.00 0.00 0.00 87 1020.5
20260902053019 55 207 0.0 0.0 0.00 0.00 0.00 87 1020.1
20260902051516 54 207 0.0 0.0 0.00 0.00 0.00 87 1020.1
20260902050020 54 207 0.0 0.0 0.00 0.00 0.00 87 1020.1
20260902044532 54 207 0.0 0.0 0.00 0.00 0.00 89 1019.9
20260902043011 53 207 0.0 0.0 0.00 0.00 0.00 87 1020.0
20260902041515 53 207 0.0 0.0 0.00 0.00 0.00 87 1020.0
20260902040011 53 207 0.0 0.0 0.00 0.00 0.00 86 1020.0
20260902034510 53 207 0.0 0.0 0.00 0.00 0.00 87 1019.9
20260902033009 53 207 0.0 0.0 0.00 0.00 0.00 86 1019.9
20260902031516 53 207 0.0 0.0 0.00 0.00 0.00 86 1019.9
20260902030008 53 207 0.0 0.0 0.00 0.00 0.00 86 1019.8
20260902024506 54 207 0.0 0.0 0.00 0.00 0.00 85 1019.8
20260902023004 54 207 0.0 0.0 0.00 0.00 0.00 86 1019.9
20260902021503 54 207 0.0 0.0 0.00 0.00 0.00 84 1019.8
20260902020001 55 207 0.0 2.0 0.00 0.00 0.00 84 1019.8
20260902014603 55 207 1.0 3.0 0.00 0.00 0.00 84 1019.8
20260902013102 55 207 1.0 2.0 0.00 0.00 0.00 85 1019.8
20260902011558 55 207 2.0 3.0 0.00 0.00 0.00 84 1020.0
20260902010058 55 207 0.0 4.0 0.00 0.00 0.00 84 1020.1
20260902004554 55 207 0.0 2.0 0.00 0.00 0.00 83 1020.2
20260902003056 56 207 0.0 2.0 0.00 0.00 0.00 82 1020.1
20260902001552 56 207 2.0 3.0 0.00 0.00 0.00 82 1020.1
20260902000051 56 206 0.0 2.0 0.00 0.00 0.00 82 1020.1
20260901234603 56 206 0.0 3.0 0.00 0.00 0.00 81 1020.1
20260901233053 57 206 0.0 0.0 0.00 0.00 0.00 79 1020.2
20260901231544 58 206 1.0 3.0 0.00 0.00 0.00 77 1020.1
20260901230050 58 206 1.0 3.0 0.00 0.00 0.00 76 1020.1
20260901224544 58 206 0.0 0.0 0.00 0.00 0.00 77 1020.1
20260901223041 59 206 0.0 2.0 0.00 0.00 0.00 76 1020.1
20260901221602 59 206 1.0 2.0 0.00 0.00 0.00 75 1020.0
20260901220036 59 206 1.0 3.0 0.00 0.00 0.00 76 1020.2
20260901214536 59 206 1.0 3.0 0.00 0.00 0.00 77 1020.1
20260901213039 59 206 1.0 3.0 0.00 0.00 0.00 77 1020.2
20260901211537 59 206 2.0 4.0 0.00 0.00 0.00 77 1020.3
20260901210038 59 206 3.0 4.0 0.00 0.00 0.00 77 1020.3